TimePDT,TemperatureF,Dew PointF,Humidity,Sea Level PressureIn,VisibilityMPH,Wind Direction,Wind SpeedMPH,Gust SpeedMPH,PrecipitationIn,Events,Conditions,WindDirDegrees,DateUTC
12:15 AM,64.4,64.4,100,30.11,10.0,Calm,Calm,-,N/A,,Overcast,0,2013-08-30 07:15:00
12:35 AM,64.4,64.4,100,30.11,10.0,South,3.5,-,N/A,,Overcast,180,2013-08-30 07:35:00
12:55 AM,64.4,64.4,100,30.11,10.0,South,6.9,-,N/A,,Overcast,190,2013-08-30 07:55:00
1:15 AM,64.4,64.4,100,30.11,10.0,South,5.8,-,N/A,,Overcast,170,2013-08-30 08:15:00
1:35 AM,64.4,64.4,100,30.11,10.0,SSE,4.6,-,N/A,,Overcast,160,2013-08-30 08:35:00
1:55 AM,64.4,64.4,100,30.11,10.0,SSE,4.6,-,N/A,,Overcast,160,2013-08-30 08:55:00
2:15 AM,64.4,62.6,94,30.11,10.0,Calm,Calm,-,N/A,,Overcast,0,2013-08-30 09:15:00
2:35 AM,64.4,62.6,94,30.12,10.0,Calm,Calm,-,N/A,,Overcast,0,2013-08-30 09:35:00
2:55 AM,64.4,64.4,100,30.12,6.0,West,3.5,-,N/A,,Overcast,280,2013-08-30 09:55:00
3:15 AM,64.4,64.4,100,30.12,3.0,West,3.5,-,N/A,,Overcast,280,2013-08-30 10:15:00
3:35 AM,64.4,64.4,100,30.12,3.0,Calm,Calm,-,N/A,,Overcast,0,2013-08-30 10:35:00
3:55 AM,62.6,62.6,100,30.12,4.0,Calm,Calm,-,N/A,,Overcast,0,2013-08-30 10:55:00
4:15 AM,64.4,64.4,100,30.12,10.0,SW,3.5,-,N/A,,Overcast,220,2013-08-30 11:15:00
4:35 AM,64.4,64.4,100,30.12,10.0,SSW,3.5,-,N/A,,Overcast,200,2013-08-30 11:35:00
4:55 AM,62.6,62.6,100,30.12,9.0,Calm,Calm,-,N/A,,Overcast,0,2013-08-30 11:55:00
5:15 AM,62.6,62.6,100,30.12,7.0,Calm,Calm,-,N/A,,Overcast,0,2013-08-30 12:15:00
5:35 AM,62.6,60.8,94,30.12,8.0,Calm,Calm,-,N/A,,Overcast,0,2013-08-30 12:35:00
5:55 AM,62.6,60.8,94,30.13,10.0,Calm,Calm,-,N/A,,Overcast,0,2013-08-30 12:55:00
6:15 AM,62.6,62.6,100,30.13,10.0,Calm,Calm,-,N/A,,Overcast,0,2013-08-30 13:15:00
6:35 AM,60.8,60.8,100,30.13,9.0,Calm,Calm,-,N/A,,Overcast,0,2013-08-30 13:35:00
6:55 AM,60.8,60.8,100,30.14,2.0,West,5.8,-,N/A,,Mostly Cloudy,270,2013-08-30 13:55:00
7:15 AM,62.6,62.6,100,30.14,2.0,Calm,Calm,-,N/A,,Mostly Cloudy,0,2013-08-30 14:15:00
7:35 AM,62.6,62.6,100,30.14,9.0,Calm,Calm,-,N/A,,Overcast,0,2013-08-30 14:35:00
7:55 AM,62.6,62.6,100,30.14,10.0,Calm,Calm,-,N/A,,Overcast,0,2013-08-30 14:55:00
8:15 AM,64.4,64.4,100,30.14,4.0,Calm,Calm,-,N/A,,Mostly Cloudy,0,2013-08-30 15:15:00
8:35 AM,64.4,64.4,100,30.14,4.0,Calm,Calm,-,N/A,,Mostly Cloudy,0,2013-08-30 15:35:00
8:55 AM,64.4,62.6,94,30.14,4.0,Calm,Calm,-,N/A,,Mostly Cloudy,0,2013-08-30 15:55:00
9:15 AM,64.4,64.4,100,30.14,5.0,West,4.6,-,N/A,,Overcast,280,2013-08-30 16:15:00
9:35 AM,64.4,64.4,100,30.14,3.0,NNW,8.1,-,N/A,,Overcast,330,2013-08-30 16:35:00
9:55 AM,64.4,64.4,100,30.14,3.0,North,5.8,-,N/A,,Overcast,350,2013-08-30 16:55:00
10:15 AM,64.4,64.4,100,30.14,4.0,North,4.6,-,N/A,,Mostly Cloudy,350,2013-08-30 17:15:00
10:35 AM,66.2,64.4,94,30.14,4.0,North,5.8,-,N/A,,Mostly Cloudy,350,2013-08-30 17:35:00
10:55 AM,66.2,64.4,94,30.14,4.0,North,4.6,-,N/A,,Mostly Cloudy,350,2013-08-30 17:55:00
11:15 AM,68.0,64.4,88,30.14,10.0,Calm,Calm,-,N/A,,Partly Cloudy,0,2013-08-30 18:15:00
11:35 AM,69.8,64.4,83,30.14,10.0,NNW,5.8,-,N/A,,Clear,330,2013-08-30 18:35:00
11:55 AM,69.8,64.4,83,30.14,10.0,NNW,6.9,-,N/A,,Clear,340,2013-08-30 18:55:00
12:15 PM,71.6,64.4,78,30.13,10.0,NNW,6.9,-,N/A,,Clear,330,2013-08-30 19:15:00
12:35 PM,71.6,64.4,78,30.13,10.0,NNW,8.1,-,N/A,,Clear,340,2013-08-30 19:35:00
12:55 PM,71.6,64.4,78,30.12,10.0,NNW,9.2,-,N/A,,Clear,340,2013-08-30 19:55:00
1:15 PM,71.6,64.4,78,30.11,10.0,NNW,10.4,-,N/A,,Clear,330,2013-08-30 20:15:00
1:35 PM,71.6,64.4,78,30.11,10.0,NNW,10.4,-,N/A,,Clear,330,2013-08-30 20:35:00
1:55 PM,69.8,64.4,83,30.11,10.0,NNW,12.7,-,N/A,,Clear,330,2013-08-30 20:55:00
2:15 PM,71.6,64.4,78,30.11,10.0,NNW,11.5,-,N/A,,Clear,340,2013-08-30 21:15:00
2:35 PM,71.6,64.4,78,30.11,10.0,NNW,10.4,-,N/A,,Clear,330,2013-08-30 21:35:00
2:55 PM,71.6,64.4,78,30.11,10.0,NNW,11.5,-,N/A,,Clear,340,2013-08-30 21:55:00
3:15 PM,71.6,62.6,73,30.10,10.0,NNW,11.5,-,N/A,,Clear,340,2013-08-30 22:15:00
3:35 PM,71.6,62.6,73,30.10,10.0,NNW,12.7,-,N/A,,Clear,340,2013-08-30 22:35:00
3:55 PM,71.6,62.6,73,30.10,10.0,North,10.4,-,N/A,,Clear,350,2013-08-30 22:55:00
4:15 PM,69.8,62.6,78,30.09,10.0,North,13.8,17.3,N/A,,Clear,360,2013-08-30 23:15:00
4:35 PM,69.8,62.6,78,30.09,10.0,North,15.0,-,N/A,,Clear,360,2013-08-30 23:35:00
4:55 PM,69.8,62.6,78,30.08,10.0,North,15.0,18.4,N/A,,Clear,360,2013-08-30 23:55:00
5:15 PM,69.8,60.8,73,30.08,10.0,North,16.1,-,N/A,,Clear,360,2013-08-31 00:15:00
5:35 PM,68.0,60.8,78,30.08,10.0,North,12.7,20.7,N/A,,Clear,350,2013-08-31 00:35:00
5:55 PM,66.2,60.8,83,30.08,10.0,North,15.0,-,N/A,,Clear,350,2013-08-31 00:55:00
6:15 PM,64.4,60.8,88,30.08,10.0,North,13.8,-,N/A,,Clear,350,2013-08-31 01:15:00
6:35 PM,64.4,60.8,88,30.07,10.0,North,9.2,-,N/A,,Clear,350,2013-08-31 01:35:00
6:55 PM,66.2,62.6,88,30.07,10.0,NNW,5.8,-,N/A,,Clear,330,2013-08-31 01:55:00
7:15 PM,62.6,60.8,94,30.07,10.0,NNW,6.9,-,N/A,,Clear,330,2013-08-31 02:15:00
7:35 PM,62.6,60.8,94,30.07,10.0,NW,8.1,-,N/A,,Clear,320,2013-08-31 02:35:00
7:55 PM,60.8,60.8,100,30.07,10.0,NNW,6.9,-,N/A,,Clear,330,2013-08-31 02:55:00
8:15 PM,60.8,59.0,94,30.07,10.0,North,5.8,-,N/A,,Clear,350,2013-08-31 03:15:00
8:35 PM,60.8,59.0,94,30.07,10.0,NNW,5.8,-,N/A,,Clear,330,2013-08-31 03:35:00
8:55 PM,60.8,59.0,94,30.07,10.0,NNW,3.5,-,N/A,,Clear,330,2013-08-31 03:55:00
9:15 PM,60.8,59.0,94,30.07,10.0,WNW,5.8,-,N/A,,Clear,300,2013-08-31 04:15:00
9:35 PM,59.0,59.0,100,30.07,10.0,WNW,4.6,-,N/A,,Clear,300,2013-08-31 04:35:00
9:55 PM,59.0,59.0,100,30.07,10.0,WNW,5.8,-,N/A,,Clear,290,2013-08-31 04:55:00
10:15 PM,57.2,57.2,100,30.07,3.0,West,5.8,-,N/A,,Mostly Cloudy,280,2013-08-31 05:15:00
10:35 PM,57.2,57.2,100,30.07,3.0,West,4.6,-,N/A,,Overcast,270,2013-08-31 05:35:00
10:55 PM,57.2,57.2,100,30.07,5.0,West,3.5,-,N/A,,Overcast,270,2013-08-31 05:55:00
11:15 PM,57.2,57.2,100,30.06,8.0,West,3.5,-,N/A,,Overcast,260,2013-08-31 06:15:00
11:35 PM,59.0,59.0,100,30.06,10.0,Calm,Calm,-,N/A,,Overcast,0,2013-08-31 06:35:00
11:55 PM,59.0,59.0,100,30.06,10.0,Calm,Calm,-,N/A,,Overcast,0,2013-08-31 06:55:00